Location: North Evanston
(42.0634°N, 87.6976°W)
Time: 19:54:17
(UTC+00:00)

Injun/Solrad 3 - Pass Details

Date: 19 May 2026
Orbit: 867 x 989 km, 66.8° (Epoch: 6 June)

Event Time Altitude Azimuth Distance (km) Brightness Sun altitude
Rises 02:42:33 0° 336° (NNW) 3,667 12.4 -14.9°
Reaches altitude 10° 02:47:36 10° 10° (N) 2,739 10.8 -15.6°
Maximum altitude 02:49:23 11° 27° (NNE) 2,661 10.5 -15.8°
Drops below altitude 10° 02:51:10 10° 43° (NE) 2,748 10.4 -16.0°
Sets 02:56:14 0° 77° (ENE) 3,700 10.7 -16.7°
